This is the latest recevied weather packets stored in our database for station/object N1IJV-10. If no packets are shown the sender has not sent any weather packets the latest 10 day(s).
| Time | Temp. | Humidity | Pressure | Rain* | Wind** | Luminosity | Snow |
|---|---|---|---|---|---|---|---|
| 1778049016 | 7.78° C | 60% | 1010.4 hPa | 0 mm | - | 0 W/m² | - |
| 1778048715 | 8.33° C | 59% | 1010.4 hPa | 0 mm | - | 0 W/m² | - |
| 1778048411 | 8.33° C | 58% | 1010.4 hPa | 0 mm | - | 0 W/m² | - |
| 1778048107 | 8.33° C | 56% | 1010.4 hPa | 0 mm | - | 0 W/m² | - |
| 1778047805 | 8.33° C | 56% | 1010.3 hPa | 0 mm | - | 0 W/m² | - |
| 1778047503 | 7.22° C | 61% | 1010.3 hPa | 0 mm | - | 0 W/m² | - |
| 1778047199 | 7.22° C | 64% | 1010.4 hPa | 0 mm | - | 0 W/m² | - |
| 1778046897 | 7.22° C | 63% | 1010.1 hPa | 0 mm | - | 0 W/m² | - |
| 1778046593 | 7.22° C | 61% | 1010.3 hPa | 0 mm | - | 0 W/m² | - |
| 1778046291 | 7.78° C | 61% | 1010.1 hPa | 0 mm | - | 0 W/m² | - |
| 1778045986 | 7.78° C | 61% | 1010.1 hPa | 0 mm | - | 0 W/m² | - |
| 1778045685 | 7.78° C | 61% | 1010.4 hPa | 0 mm | - | 0 W/m² | - |
| 1778045383 | 7.78° C | 61% | 1010.1 hPa | 0 mm | - | 0 W/m² | - |
| 1778045081 | 8.33° C | 61% | 1010.1 hPa | 0 mm | - | 0 W/m² | - |
| 1778044778 | 8.33° C | 59% | 1010 hPa | 0 mm | - | 0 W/m² | - |
| 1778044475 | 8.89° C | 58% | 1009.9 hPa | 0 mm | - | 0 W/m² | - |
| 1778044172 | 9.44° C | 56% | 1009.9 hPa | 0 mm | - | 0 W/m² | - |
| 1778043870 | 9.44° C | 56% | 1009.9 hPa | 0 mm | - | 0 W/m² | - |
| 1778043566 | 9.44° C | 56% | 1009.6 hPa | 0 mm | - | 0 W/m² | - |
| 1778043263 | 10° C | 55% | 1009.8 hPa | 0 mm | - | 0 W/m² | - |
| 1778042960 | 10° C | 53% | 1009.7 hPa | 0 mm | - | 0 W/m² | - |
| 1778042658 | 10° C | 56% | 1009.7 hPa | 0 mm | - | 0 W/m² | - |
| 1778042355 | 10° C | 52% | 1009.8 hPa | 0 mm | - | 0 W/m² | - |
| 1778042052 | 10° C | 57% | 1009.9 hPa | 0 mm | - | 0 W/m² | - |
| 1778041750 | 10° C | 58% | 1009.7 hPa | 0 mm | - | 0 W/m² | - |
* Rain latest hour (hover to see other rain measurements)
** Current wind speed in m/s (hover to see current wind gust speed)